Location: Utrecht
(52.0907°N, 5.1214°E)
Time: 18:52:43
(UTC+02:00)

KKS-1 - Pass Details

Date: 30 June 2022
Orbit: 634 x 649 km, 98.2° (Epoch: 18 August)

Event Time Altitude Azimuth Distance (km) Brightness Sun altitude
Rises 23:18:15 0° 19° (NNE) 2,981 ? -8.4°
Reaches altitude 10° 23:20:35 10° 27° (NNE) 2,064 ? -8.6°
Maximum altitude 23:24:51 41° 98° (E) 942 ? -8.9°
Enters shadow 23:29:00 10° 169° (S) 2,012 ? -9.3°
